Location: Azul
(36.7830°S, 59.8500°W)
Time: 03:48:20
(UTC-03:00)

ISS - Pass Details

Date: 26 July 2017
Orbit: 400 x 408 km, 51.6° (Epoch: 21 July)

Event Time Altitude Azimuth Distance (km) Brightness Sun altitude
Rises 07:11:20 0° 357° (N) 2,322 0.2 -10.4°
Reaches altitude 10° 07:14:33 10° 32° (NNE) 1,475 -0.2 -9.8°
Maximum altitude 07:15:44 12° 53° (NE) 1,389 0.1 -9.6°
Drops below altitude 10° 07:16:56 10° 74° (ENE) 1,484 0.7 -9.3°
Sets 07:20:12 0° 109° (ESE) 2,358 1.0 -8.7°
